Regional Weather Roundup
Issued by NWS San Diego, CA

Home | Current Version | Previous Version | Text Only | Print | Product List | Glossary On
Versions: 1 2 3 4 5 6 7 8 9 10 11 12 13 14 15 16 17 18 19 20 21 22 23 24 25 26 27 28 29 30 31 32 33 34 35 36 37 38 39 40 41 42 43 44 45 46 47
000
ASUS46 KSGX 061711
RWRSGX

SAN DIEGO HOURLY WEATHER ROUNDUP
NATIONAL WEATHER SERVICE SAN DIEGO CA
900 AM PST FRI MAR 06 2015

NOTE: "FAIR" INDICATES FEW OR NO CLOUDS BELOW 12,000 FEET WITH NO
SIGNIFICANT WEATHER AND/OR OBSTRUCTIONS TO VISIBILITY.

CAZ042-043-060-061-PZZ750-775-061800-

GREATER SAN DIEGO AREA

CITY           SKY/WX    TMP DP  RH WIND       PRES   REMARKS
LINDBERGH FLD  SUNNY     63  31  30 CALM      30.13F
NATIONAL CITY    N/A     63  37  38 CALM      30.12F
CHULA VISTA      N/A     64  39  38 CALM      30.05S
IMPERIAL BEACH SUNNY     65  35  33 NE6       30.12S
BROWN FIELD    SUNNY     65  27  23 SE3       30.12S
MIRAMAR MCAS   SUNNY     69  21  16 N3        30.12S
MONTGOMERY FLD SUNNY     65  33  30 CALM      30.12S

$$

NORTH SAN DIEGO COUNTY

CITY           SKY/WX    TMP DP  RH WIND       PRES   REMARKS
CAMP PENDLETON SUNNY     72  20  14 E6        30.13S
OCEANSIDE AP   SUNNY     67  30  25 NE7       30.12S
OCEANSIDE HBR    N/A     66  38  35 NE2       30.15S
VISTA            N/A     66  31  26 NE1       30.12S
CARLSBAD       SUNNY     68  23  18 N7        30.11S
DEL MAR          N/A     63  41  44 CALM      30.14S
LA JOLLA SCRIP   N/A     63  35  34 CALM      30.10S
FALLBROOK        N/A     67  18  14 E12       30.14F
SAN MARCOS       N/A     65  31  28 CALM      30.11S
POWAY            N/A     58  36  44 CALM      30.15S

$$

EAST SAN DIEGO COUNTY

CITY           SKY/WX    TMP DP  RH WIND       PRES   REMARKS
RAMONA         SUNNY     68  33  27 E8        30.14S
SANTEE LAKES     N/A     56  37  48 CALM      30.14F
LA MESA          N/A     62  32  32 CALM      30.07S
JAMUL            N/A     63  36  36 CALM      30.12S
DESCANSO N       N/A     61  17  18 NE20      30.04R
MT. LAGUNA OBS   N/A     45  10  24 NE14      29.77S
CAMPO            N/A     63  15  15 NE23G38   30.12R

$$

ORANGE COUNTY AND THE LOS ANGELES BASIN

CITY           SKY/WX    TMP DP  RH WIND       PRES   REMARKS
JOHN WAYNE AP  SUNNY     78  20  11 NE6       30.13S
LAKE FOREST FR   N/A     72  15  11 NE12      30.01F
SANTA ANA        N/A     74  20  13 N7        30.09S
HUNTINGTON BCH   N/A     67  38  34 N12       30.15S
LOS ALAMITOS   SUNNY     68  31  24 NW5       30.14S
FULLERTON      SUNNY     71  28  20 NW3       30.14S
LONG BEACH     SUNNY     65  32  29 NW5       30.15S
L.A. AP        SUNNY     67  24  19 NE6       30.16R
L.A. DOWNTOWN  SUNNY     68  30  24 CALM      30.15R

$$

THE INLAND EMPIRE

CITY           SKY/WX    TMP DP  RH WIND       PRES   REMARKS
CORONA         SUNNY     71  23  16 SE12      30.17F
CHINO          SUNNY     72  25  17 E14G23    30.16F
ONTARIO        SUNNY     69  24  18 NW9G21    30.15F
SAN BERNARDINO SUNNY     61  25  25 W5        30.19S
RIVERSIDE AP   SUNNY     67  25  20 E6        30.18S
RIV CYN CREST    N/A     66  35  32 CALM        N/A
MORENO VALLEY    N/A     70  31  24 E3        29.38S
MARCH ARB      SUNNY     68  19  15 NE9       30.18S
HORSETHIEF CYN   N/A     66  20  17 NW9       30.16S
PERRIS           N/A     64  31  29 NW1         N/A
MENIFEE          N/A     59  36  41 CALM      30.28F
HEMET EAST       N/A     58  20  23 CALM      30.18S
FRENCH VALLEY  FAIR      59  32  36 N5        30.18S
TEMECULA         N/A     48  38  66 CALM      30.15R

$$

SAN BERNARDINO AND RIVERSIDE COUNTY MOUNTAINS

CITY           SKY/WX    TMP DP  RH WIND       PRES   REMARKS
BIG BEAR AP    SUNNY     41  10  28 E15       30.34S
ANGELUS OAKS     N/A     48  15  26 CALM      30.18R
PINE COVE        N/A     48   1  14 W1        30.20S

$$

SOUTHERN DESERT INCLUDING THE COACHELLA VALLEY

CITY           SKY/WX    TMP DP  RH WIND       PRES   REMARKS
PALM SPRINGS   SUNNY     74  15  10 NW7       30.21S
THOUSAND PALMS   N/A     71  26  18 W5        30.18S
PALM DESERT      N/A     72  31  21 CALM      26.99S
THERMAL        SUNNY     75  21  13 NW14      30.15F
BLYTHE         SUNNY     67  26  21 N18       30.19S
IMPERIAL AP    SUNNY     68  39  34 NW9       30.14S
EL CENTRO NAS  SUNNY     70  32  24 NW7       30.14S
YUMA AZ        SUNNY     68  28  22 N17G23    30.12R
MEXICALI       SUNNY     64  32  29 NW8       30.15

$$

UPPER DESERT

CITY           SKY/WX    TMP DP  RH WIND       PRES   REMARKS
VICTORVILLE AP   N/A     52  16  24 CALM      30.30S
HESPERIA         N/A     53  24  32 SW2       30.46S
APPLE VALLEY     N/A     51  20  29 CALM      30.30F
PALMDALE       SUNNY     47  24  40 N3        30.31R
LANCASTER      SUNNY     48  24  39 CALM      30.32R
EDWARDS AFB    SUNNY     43  22  43 VRB1      30.30R
DAGGETT        SUNNY     53  18  25 W10       30.30S
29 PALMS N     FAIR      60  22  23 NW7       30.34S
NEEDLES        SUNNY     64  27  24 N13       30.26R

$$

REGIONAL REPORTS

CITY           SKY/WX    TMP DP  RH WIND       PRES   REMARKS
SANTA BARBARA  SUNNY     63  38  39 SE3       30.17S
SANDBERG       SUNNY     54  20  26 NE10      30.32R
MT. WILSON       N/A     55  10  16 NW1         N/A
LAS VEGAS NV   SUNNY     57  24  28 CALM      30.31S
PHOENIX AZ     SUNNY     67  19  16 E17G26    30.16S
TIJUANA        SUNNY     63  36  36 E5        30.14F
ENSENADA NW      N/A     67  32  27 SW3       30.06F

$$

OFFSHORE ISLANDS

CITY           SKY/WX    TMP DP  RH WIND       PRES   REMARKS
CATALINA ARPT  SUNNY     67  15  13 NE13      30.18S
SAN CLEMENTE I SUNNY     66  50  56 NE6       30.15S
SAN NICOLAS IS SUNNY     63  32  31 NW15      30.16S

$$

MARINE AND OFFSHORE BUOY REPORTS

STATION/POSITION SKY/WX   TEMP    WIND        PRES    SWELL
                          AIR SEA DIR/SP/G            HT/PER/DIR
                          (F)     (DEG/KT/KT) (MB)    (FT/S/D)
TANNER BANKS               62 61  360/ 10/ 14 1020.4R   3/190/15
S CLEMENTE BASIN           61 62  360/  6/  8 1020.0R   3/200/15
SAN NICOLAS IS.               60                N/A     3/190/14
SO. S. ROSA ISLA           59 59  340/  8/  8 1020.8R   3/15
W. S. BARBARA CH           60 59   CALM  /  2 1021.5R   3/300/16
S. MONICA BASIN            63 62   30/  2/  4 1021.1R   2/170/14
S PEDRO CHANNEL               61                N/A     2/170/13
DANA POINT                    61                N/A     2/190/15
CMP PENDLETON NS              61                N/A     2/210/14
OCEANSIDE OFFSHR              61                N/A     2/200/14
TORREY PINES OTR              62                N/A     2/200/15
LA JOLLA 1                 67 62   CALM  /  1 1020.1R
MISSION BAY BUOY              62                N/A     2/200/14
SAN DIEGO BAY                 64              1020.6R
POINT LOMA SOUTH              62                N/A     3/190/14

$$




USA.gov is the U.S. government's official web portal to all federal, state and local government web resources and services.